Starlink 3232

operational
NORAD ID: 50809 Int'l Des: 2022-001 Owner: SPXS Country: US Constellation: starlink
LEOCIRCULAR

Starlink 3232について

説明を読み込み中...

リアルタイム位置

3D地球を読み込み中...

次回通過

高度履歴

Altitude vs Time

uPlot chart will show altitude changes over time

軌道要素

1 50809U 22001G 25302.52254348 -.00001909 00000-0 -10183-3 0 9999
2 50809 53.2188 27.9490 0001545 103.8827 256.2337 15.08846093210742
Epoch: Oct 29, 2025 • Age: 15 hours

現在のステータス

高度 544.6 km
速度 7.60 km/s
衛星直下点 50.30°N, 53.11°E
打ち上げ日 Jan 6, 2022
運用期間 3.8 years
タイプ internet

技術仕様

分類 Payload
質量 297.00 kg
乾燥質量 275.00 kg
総質量 297.00 kg
長さ 0.20 m
直径 2.80 m
スパン 9.00 m
形状 Box + pan
製造者 SPXS
バスタイプ Starlink
フェーズステータス In Orbit
所有者/国 SPXS/US

大規模コンステレーション

Loading constellations...